owner,sensor,date,latitude,longitude,vertical_datum,mass_concentration_of_oxygen_in_sea_water,qcFlag 
SCCF RECON,ioos:station:SCCF:51:1,2011-01-01T00:00:00Z,26.5545,-82.1715,2.096,8.51,1111122 
SCCF RECON,ioos:station:SCCF:51:1,2011-01-01T01:00:00Z,26.5545,-82.1715,2.16,8.39,1111122 
SCCF RECON,ioos:station:SCCF:51:1,2011-01-01T02:00:00Z,26.5545,-82.1715,2.19,8.29,1111122 
SCCF RECON,ioos:station:SCCF:51:1,2011-01-01T03:00:00Z,26.5545,-82.1715,2.17,8.23,1111122 
SCCF RECON,ioos:station:SCCF:51:1,2011-01-01T04:00:00Z,26.5545,-82.1715,2.1,8.52,1111122 
SCCF RECON,ioos:station:SCCF:51:1,2011-01-01T05:00:00Z,26.5545,-82.1715,2.01,8.55,1111122 
SCCF RECON,ioos:station:SCCF:51:1,2011-01-01T06:00:00Z,26.5545,-82.1715,1.89,8.78,1111122 
SCCF RECON,ioos:station:SCCF:51:1,2011-01-01T07:00:00Z,26.5545,-82.1715,1.759,8.74,1111122 
SCCF RECON,ioos:station:SCCF:51:1,2011-01-01T08:00:00Z,26.5545,-82.1715,1.63,8.7,1111122 
SCCF RECON,ioos:station:SCCF:51:1,2011-01-01T09:00:00Z,26.5545,-82.1715,1.51,8.57,1111122 
SCCF RECON,ioos:station:SCCF:51:1,2011-01-01T10:00:00Z,26.5545,-82.1715,1.41,8.47,1111122 
SCCF RECON,ioos:station:SCCF:51:1,2011-01-01T11:00:00Z,26.5545,-82.1715,1.359,8.44,1111122 
SCCF RECON,ioos:station:SCCF:51:1,2011-01-01T12:00:00Z,26.5545,-82.1715,1.429,8.47,1111122 
SCCF RECON,ioos:station:SCCF:51:1,2011-01-01T13:00:00Z,26.5545,-82.1715,1.54,8.51,1111122 
SCCF RECON,ioos:station:SCCF:51:1,2011-01-01T14:00:00Z,26.5545,-82.1715,1.671,8.39,1111122 
SCCF RECON,ioos:station:SCCF:51:1,2011-01-01T15:00:00Z,26.5545,-82.1715,1.783,8.45,1111122 
SCCF RECON,ioos:station:SCCF:51:1,2011-01-01T16:00:00Z,26.5545,-82.1715,1.862,8.46,1111122 
SCCF RECON,ioos:station:SCCF:51:1,2011-01-01T17:00:00Z,26.5545,-82.1715,1.917,8.5,1111122 
SCCF RECON,ioos:station:SCCF:51:1,2011-01-01T18:00:00Z,26.5545,-82.1715,1.923,8.52,1111122 
SCCF RECON,ioos:station:SCCF:51:1,2011-01-01T19:00:00Z,26.5545,-82.1715,1.89,8.68,1111122 
SCCF RECON,ioos:station:SCCF:51:1,2011-01-01T20:00:00Z,26.5545,-82.1715,1.837,8.66,1111122 
SCCF RECON,ioos:station:SCCF:51:1,2011-01-01T21:00:00Z,26.5545,-82.1715,1.82,8.58,1111122 
SCCF RECON,ioos:station:SCCF:51:1,2011-01-01T22:00:00Z,26.5545,-82.1715,1.855,8.64,1111122 
SCCF RECON,ioos:station:SCCF:51:1,2011-01-01T23:00:00Z,26.5545,-82.1715,1.936,8.49,1111122 
SCCF RECON,ioos:station:SCCF:51:1,2011-01-02T00:00:00Z,26.5545,-82.1715,2.032,8.59,1111122 
SCCF RECON,ioos:station:SCCF:51:1,2011-01-02T01:00:00Z,26.5545,-82.1715,2.111,8.42,1111122 
SCCF RECON,ioos:station:SCCF:51:1,2011-01-02T02:00:00Z,26.5545,-82.1715,2.18,8.32,1111122 
SCCF RECON,ioos:station:SCCF:51:1,2011-01-02T03:00:00Z,26.5545,-82.1715,2.153,8.22,1111122 
SCCF RECON,ioos:station:SCCF:51:1,2011-01-02T04:00:00Z,26.5545,-82.1715,2.116,8.28,1111122 
SCCF RECON,ioos:station:SCCF:51:1,2011-01-02T05:00:00Z,26.5545,-82.1715,2.05,8.38,1111122 
SCCF RECON,ioos:station:SCCF:51:1,2011-01-02T06:00:00Z,26.5545,-82.1715,1.94,8.5,1111122 
SCCF RECON,ioos:station:SCCF:51:1,2011-01-02T07:00:00Z,26.5545,-82.1715,1.82,8.51,1111122 
SCCF RECON,ioos:station:SCCF:51:1,2011-01-02T08:00:00Z,26.5545,-82.1715,1.69,8.48,1111122 
SCCF RECON,ioos:station:SCCF:51:1,2011-01-02T09:00:00Z,26.5545,-82.1715,1.562,8.26,1111122 
SCCF RECON,ioos:station:SCCF:51:1,2011-01-02T10:00:00Z,26.5545,-82.1715,1.45,7.96,1111122 
SCCF RECON,ioos:station:SCCF:51:1,2011-01-02T11:00:00Z,26.5545,-82.1715,1.34,7.83,1111122 
SCCF RECON,ioos:station:SCCF:51:1,2011-01-02T12:00:00Z,26.5545,-82.1715,1.29,7.86,1111122 
SCCF RECON,ioos:station:SCCF:51:1,2011-01-02T13:00:00Z,26.5545,-82.1715,1.356,7.94,1111122 
SCCF RECON,ioos:station:SCCF:51:1,2011-01-02T14:00:00Z,26.5545,-82.1715,1.484,8.31,1111122 
SCCF RECON,ioos:station:SCCF:51:1,2011-01-02T15:00:00Z,26.5545,-82.1715,1.629,8.25,1111122 
SCCF RECON,ioos:station:SCCF:51:1,2011-01-02T16:00:00Z,26.5545,-82.1715,1.75,8.35,1111122 
SCCF RECON,ioos:station:SCCF:51:1,2011-01-02T17:00:00Z,26.5545,-82.1715,1.831,8.36,1111122 
SCCF RECON,ioos:station:SCCF:51:1,2011-01-02T18:00:00Z,26.5545,-82.1715,1.86,8.41,1111122 
SCCF RECON,ioos:station:SCCF:51:1,2011-01-02T19:00:00Z,26.5545,-82.1715,1.874,8.35,1111122 
SCCF RECON,ioos:station:SCCF:51:1,2011-01-02T20:00:00Z,26.5545,-82.1715,1.828,8.47,1111122 
SCCF RECON,ioos:station:SCCF:51:1,2011-01-02T21:00:00Z,26.5545,-82.1715,1.774,8.4,1111122 
SCCF RECON,ioos:station:SCCF:51:1,2011-01-02T22:00:00Z,26.5545,-82.1715,1.776,8.34,1111122 
SCCF RECON,ioos:station:SCCF:51:1,2011-01-02T23:00:00Z,26.5545,-82.1715,1.822,8.45,1111122 
SCCF RECON,ioos:station:SCCF:51:1,2011-01-03T00:00:00Z,26.5545,-82.1715,1.9,8.5,1111122 
SCCF RECON,ioos:station:SCCF:51:1,2011-01-03T01:00:00Z,26.5545,-82.1715,1.981,8.48,1111122 
SCCF RECON,ioos:station:SCCF:51:1,2011-01-03T02:00:00Z,26.5545,-82.1715,2.053,8.37,1111122 
SCCF RECON,ioos:station:SCCF:51:1,2011-01-03T03:00:00Z,26.5545,-82.1715,2.107,8.33,1111122 
SCCF RECON,ioos:station:SCCF:51:1,2011-01-03T04:00:00Z,26.5545,-82.1715,2.105,8.06,1111122 
SCCF RECON,ioos:station:SCCF:51:1,2011-01-03T05:00:00Z,26.5545,-82.1715,2.063,8.28,1111122 
SCCF RECON,ioos:station:SCCF:51:1,2011-01-03T06:00:00Z,26.5545,-82.1715,1.98,8.44,1111122 
SCCF RECON,ioos:station:SCCF:51:1,2011-01-03T07:00:00Z,26.5545,-82.1715,1.87,8.3,1111122 
SCCF RECON,ioos:station:SCCF:51:1,2011-01-03T08:00:00Z,26.5545,-82.1715,1.75,8.31,1111122 
SCCF RECON,ioos:station:SCCF:51:1,2011-01-03T09:00:00Z,26.5545,-82.1715,1.61,8.22,1111122 
SCCF RECON,ioos:station:SCCF:51:1,2011-01-03T10:00:00Z,26.5545,-82.1715,1.476,7.97,1111122 
SCCF RECON,ioos:station:SCCF:51:1,2011-01-03T11:00:00Z,26.5545,-82.1715,1.36,7.7,1111122 
SCCF RECON,ioos:station:SCCF:51:1,2011-01-03T12:00:00Z,26.5545,-82.1715,1.27,7.6,1111122 
SCCF RECON,ioos:station:SCCF:51:1,2011-01-03T13:00:00Z,26.5545,-82.1715,1.253,7.59,1111122 
SCCF RECON,ioos:station:SCCF:51:1,2011-01-03T14:00:00Z,26.5545,-82.1715,1.346,7.79,1111122 
SCCF RECON,ioos:station:SCCF:51:1,2011-01-03T15:00:00Z,26.5545,-82.1715,1.484,8.18,1111122 
SCCF RECON,ioos:station:SCCF:51:1,2011-01-03T16:00:00Z,26.5545,-82.1715,1.62,8.14,1111122 
SCCF RECON,ioos:station:SCCF:51:1,2011-01-03T17:00:00Z,26.5545,-82.1715,1.719,8.24,1111122 
SCCF RECON,ioos:station:SCCF:51:1,2011-01-03T18:00:00Z,26.5545,-82.1715,1.786,8.31,1111122 
SCCF RECON,ioos:station:SCCF:51:1,2011-01-03T19:00:00Z,26.5545,-82.1715,1.809,8.43,1111122 
SCCF RECON,ioos:station:SCCF:51:1,2011-01-03T20:00:00Z,26.5545,-82.1715,1.786,8.33,1111122 
SCCF RECON,ioos:station:SCCF:51:1,2011-01-03T21:00:00Z,26.5545,-82.1715,1.745,8.4,1111122 
SCCF RECON,ioos:station:SCCF:51:1,2011-01-03T22:00:00Z,26.5545,-82.1715,1.737,8.22,1111122 
SCCF RECON,ioos:station:SCCF:51:1,2011-01-03T23:00:00Z,26.5545,-82.1715,1.76,8.43,1111122 
SCCF RECON,ioos:station:SCCF:51:1,2011-01-04T00:00:00Z,26.5545,-82.1715,1.814,8.43,1111122 
SCCF RECON,ioos:station:SCCF:51:1,2011-01-04T01:00:00Z,26.5545,-82.1715,1.89,8.43,1111122 
SCCF RECON,ioos:station:SCCF:51:1,2011-01-04T02:00:00Z,26.5545,-82.1715,1.973,8.3,1111122 
SCCF RECON,ioos:station:SCCF:51:1,2011-01-04T03:00:00Z,26.5545,-82.1715,2.069,8.12,1111122 
SCCF RECON,ioos:station:SCCF:51:1,2011-01-04T04:00:00Z,26.5545,-82.1715,2.13,8.1,1111122 
SCCF RECON,ioos:station:SCCF:51:1,2011-01-04T05:00:00Z,26.5545,-82.1715,2.13,7.73,1111122 
SCCF RECON,ioos:station:SCCF:51:1,2011-01-04T06:00:00Z,26.5545,-82.1715,2.073,8.03,1111122 
SCCF RECON,ioos:station:SCCF:51:1,2011-01-04T07:00:00Z,26.5545,-82.1715,1.98,8.08,1111122 
SCCF RECON,ioos:station:SCCF:51:1,2011-01-04T08:00:00Z,26.5545,-82.1715,1.86,8.22,1111122 
SCCF RECON,ioos:station:SCCF:51:1,2011-01-04T09:00:00Z,26.5545,-82.1715,1.72,7.99,1111122 
SCCF RECON,ioos:station:SCCF:51:1,2011-01-04T10:00:00Z,26.5545,-82.1715,1.583,7.93,1111122 
SCCF RECON,ioos:station:SCCF:51:1,2011-01-04T11:00:00Z,26.5545,-82.1715,1.469,7.73,1111122 
SCCF RECON,ioos:station:SCCF:51:1,2011-01-04T12:00:00Z,26.5545,-82.1715,1.366,7.51,1111122 
SCCF RECON,ioos:station:SCCF:51:1,2011-01-04T13:00:00Z,26.5545,-82.1715,1.306,7.42,1111122 
SCCF RECON,ioos:station:SCCF:51:1,2011-01-04T14:00:00Z,26.5545,-82.1715,1.359,7.57,1111122 
SCCF RECON,ioos:station:SCCF:51:1,2011-01-04T15:00:00Z,26.5545,-82.1715,1.47,7.9,1111122 
SCCF RECON,ioos:station:SCCF:51:1,2011-01-04T16:00:00Z,26.5545,-82.1715,1.608,7.95,1111122 
SCCF RECON,ioos:station:SCCF:51:1,2011-01-04T17:00:00Z,26.5545,-82.1715,1.724,8.04,1111122 
SCCF RECON,ioos:station:SCCF:51:1,2011-01-04T18:00:00Z,26.5545,-82.1715,1.787,8.11,1111122 
SCCF RECON,ioos:station:SCCF:51:1,2011-01-04T19:00:00Z,26.5545,-82.1715,1.819,8.26,1111122 
SCCF RECON,ioos:station:SCCF:51:1,2011-01-04T20:00:00Z,26.5545,-82.1715,1.8,8.25,1111122 
SCCF RECON,ioos:station:SCCF:51:1,2011-01-04T21:00:00Z,26.5545,-82.1715,1.755,8.32,1111122 
SCCF RECON,ioos:station:SCCF:51:1,2011-01-04T22:00:00Z,26.5545,-82.1715,1.703,8.28,1111122 
SCCF RECON,ioos:station:SCCF:51:1,2011-01-04T23:00:00Z,26.5545,-82.1715,1.695,8.14,1111122 
SCCF RECON,ioos:station:SCCF:51:1,2011-01-05T00:00:00Z,26.5545,-82.1715,1.718,8.28,1111122 
SCCF RECON,ioos:station:SCCF:51:1,2011-01-05T01:00:00Z,26.5545,-82.1715,1.77,8.17,1111122 
SCCF RECON,ioos:station:SCCF:51:1,2011-01-05T02:00:00Z,26.5545,-82.1715,1.846,8.24,1111122 
SCCF RECON,ioos:station:SCCF:51:1,2011-01-05T03:00:00Z,26.5545,-82.1715,1.95,8.14,1111122 
SCCF RECON,ioos:station:SCCF:51:1,2011-01-05T04:00:00Z,26.5545,-82.1715,2.044,7.98,1111122 
SCCF RECON,ioos:station:SCCF:51:1,2011-01-05T05:00:00Z,26.5545,-82.1715,2.108,7.88,1111122 
SCCF RECON,ioos:station:SCCF:51:1,2011-01-05T06:00:00Z,26.5545,-82.1715,2.08,7.84,1111122 
SCCF RECON,ioos:station:SCCF:51:1,2011-01-05T07:00:00Z,26.5545,-82.1715,2.0,7.89,1111122 
SCCF RECON,ioos:station:SCCF:51:1,2011-01-05T08:00:00Z,26.5545,-82.1715,1.88,8.0,1111122 
SCCF RECON,ioos:station:SCCF:51:1,2011-01-05T09:00:00Z,26.5545,-82.1715,1.75,7.94,1111122 
SCCF RECON,ioos:station:SCCF:51:1,2011-01-05T10:00:00Z,26.5545,-82.1715,1.615,7.76,1111122 
SCCF RECON,ioos:station:SCCF:51:1,2011-01-05T11:00:00Z,26.5545,-82.1715,1.49,7.51,1111122 
SCCF RECON,ioos:station:SCCF:51:1,2011-01-05T12:00:00Z,26.5545,-82.1715,1.383,7.35,1111122 
SCCF RECON,ioos:station:SCCF:51:1,2011-01-05T13:00:00Z,26.5545,-82.1715,1.293,7.22,1111122 
SCCF RECON,ioos:station:SCCF:51:1,2011-01-05T14:00:00Z,26.5545,-82.1715,1.281,7.49,1111122 
SCCF RECON,ioos:station:SCCF:51:1,2011-01-05T15:00:00Z,26.5545,-82.1715,1.377,7.77,1111122 
SCCF RECON,ioos:station:SCCF:51:1,2011-01-05T16:00:00Z,26.5545,-82.1715,1.508,7.77,1111122 
SCCF RECON,ioos:station:SCCF:51:1,2011-01-05T17:00:00Z,26.5545,-82.1715,1.644,7.85,1111122 
SCCF RECON,ioos:station:SCCF:51:1,2011-01-05T18:00:00Z,26.5545,-82.1715,1.747,7.9,1111122 
SCCF RECON,ioos:station:SCCF:51:1,2011-01-05T19:00:00Z,26.5545,-82.1715,1.798,7.98,1111122 
SCCF RECON,ioos:station:SCCF:51:1,2011-01-05T20:00:00Z,26.5545,-82.1715,1.811,8.02,1111122 
SCCF RECON,ioos:station:SCCF:51:1,2011-01-05T21:00:00Z,26.5545,-82.1715,1.778,8.04,1111122 
SCCF RECON,ioos:station:SCCF:51:1,2011-01-05T22:00:00Z,26.5545,-82.1715,1.723,7.97,1111122 
SCCF RECON,ioos:station:SCCF:51:1,2011-01-05T23:00:00Z,26.5545,-82.1715,1.691,7.83,1111122 
SCCF RECON,ioos:station:SCCF:51:1,2011-01-06T00:00:00Z,26.5545,-82.1715,1.696,7.79,1111122 
SCCF RECON,ioos:station:SCCF:51:1,2011-01-06T01:00:00Z,26.5545,-82.1715,1.747,7.97,1111122 
SCCF RECON,ioos:station:SCCF:51:1,2011-01-06T02:00:00Z,26.5545,-82.1715,1.808,8.01,1111122 
SCCF RECON,ioos:station:SCCF:51:1,2011-01-06T03:00:00Z,26.5545,-82.1715,1.902,8.03,1111122 
SCCF RECON,ioos:station:SCCF:51:1,2011-01-06T04:00:00Z,26.5545,-82.1715,2.014,7.92,1111122 
SCCF RECON,ioos:station:SCCF:51:1,2011-01-06T05:00:00Z,26.5545,-82.1715,2.092,7.86,1111122 
SCCF RECON,ioos:station:SCCF:51:1,2011-01-06T06:00:00Z,26.5545,-82.1715,2.131,7.69,1111122 
SCCF RECON,ioos:station:SCCF:51:1,2011-01-06T07:00:00Z,26.5545,-82.1715,2.104,7.79,1111122 
SCCF RECON,ioos:station:SCCF:51:1,2011-01-06T08:00:00Z,26.5545,-82.1715,2.017,7.79,1111122 
SCCF RECON,ioos:station:SCCF:51:1,2011-01-06T09:00:00Z,26.5545,-82.1715,1.906,7.69,1111122 
SCCF RECON,ioos:station:SCCF:51:1,2011-01-06T10:00:00Z,26.5545,-82.1715,1.765,7.46,1111122 
SCCF RECON,ioos:station:SCCF:51:1,2011-01-06T11:00:00Z,26.5545,-82.1715,1.631,7.17,1111122 
SCCF RECON,ioos:station:SCCF:51:1,2011-01-06T12:00:00Z,26.5545,-82.1715,1.511,7.11,1111122 
SCCF RECON,ioos:station:SCCF:51:1,2011-01-06T13:00:00Z,26.5545,-82.1715,1.422,7.08,1111122 
SCCF RECON,ioos:station:SCCF:51:1,2011-01-06T14:00:00Z,26.5545,-82.1715,1.367,7.06,1111122 
SCCF RECON,ioos:station:SCCF:51:1,2011-01-06T15:00:00Z,26.5545,-82.1715,1.417,7.22,1111122 
SCCF RECON,ioos:station:SCCF:51:1,2011-01-06T16:00:00Z,26.5545,-82.1715,1.516,7.45,1111122 
SCCF RECON,ioos:station:SCCF:51:1,2011-01-06T17:00:00Z,26.5545,-82.1715,1.654,7.47,1111122 
SCCF RECON,ioos:station:SCCF:51:1,2011-01-06T18:00:00Z,26.5545,-82.1715,1.753,7.52,1111122 
SCCF RECON,ioos:station:SCCF:51:1,2011-01-06T19:00:00Z,26.5545,-82.1715,1.843,7.67,1111122 
SCCF RECON,ioos:station:SCCF:51:1,2011-01-06T20:00:00Z,26.5545,-82.1715,1.853,7.59,1111122 
SCCF RECON,ioos:station:SCCF:51:1,2011-01-06T21:00:00Z,26.5545,-82.1715,1.813,7.61,1111122 
SCCF RECON,ioos:station:SCCF:51:1,2011-01-06T22:00:00Z,26.5545,-82.1715,1.74,7.57,1111122 
SCCF RECON,ioos:station:SCCF:51:1,2011-01-06T23:00:00Z,26.5545,-82.1715,1.666,7.49,1111122 
SCCF RECON,ioos:station:SCCF:51:1,2011-01-07T00:00:00Z,26.5545,-82.1715,1.615,7.44,1111122 
SCCF RECON,ioos:station:SCCF:51:1,2011-01-07T01:00:00Z,26.5545,-82.1715,1.617,7.41,1111122 
SCCF RECON,ioos:station:SCCF:51:1,2011-01-07T02:00:00Z,26.5545,-82.1715,1.644,7.44,1111122 
SCCF RECON,ioos:station:SCCF:51:1,2011-01-07T03:00:00Z,26.5545,-82.1715,1.688,7.44,1111122 
SCCF RECON,ioos:station:SCCF:51:1,2011-01-07T04:00:00Z,26.5545,-82.1715,1.779,7.56,1111122 
SCCF RECON,ioos:station:SCCF:51:1,2011-01-07T05:00:00Z,26.5545,-82.1715,1.863,7.52,1111122 
SCCF RECON,ioos:station:SCCF:51:1,2011-01-07T06:00:00Z,26.5545,-82.1715,1.944,7.59,1111122 
SCCF RECON,ioos:station:SCCF:51:1,2011-01-07T07:00:00Z,26.5545,-82.1715,1.971,7.58,1111122 
SCCF RECON,ioos:station:SCCF:51:1,2011-01-07T08:00:00Z,26.5545,-82.1715,1.912,7.42,1111122 
SCCF RECON,ioos:station:SCCF:51:1,2011-01-07T09:00:00Z,26.5545,-82.1715,1.804,7.42,1111122 
SCCF RECON,ioos:station:SCCF:51:1,2011-01-07T10:00:00Z,26.5545,-82.1715,1.685,7.43,1111122 
SCCF RECON,ioos:station:SCCF:51:1,2011-01-07T11:00:00Z,26.5545,-82.1715,1.566,7.47,1111122 
SCCF RECON,ioos:station:SCCF:51:1,2011-01-07T12:00:00Z,26.5545,-82.1715,1.459,7.42,1111122 
SCCF RECON,ioos:station:SCCF:51:1,2011-01-07T13:00:00Z,26.5545,-82.1715,1.371,7.41,1111122 
SCCF RECON,ioos:station:SCCF:51:1,2011-01-07T14:00:00Z,26.5545,-82.1715,1.312,7.41,1111122 
SCCF RECON,ioos:station:SCCF:51:1,2011-01-07T15:00:00Z,26.5545,-82.1715,1.317,7.47,1111122 
SCCF RECON,ioos:station:SCCF:51:1,2011-01-07T16:00:00Z,26.5545,-82.1715,1.38,7.59,1111122 
SCCF RECON,ioos:station:SCCF:51:1,2011-01-07T17:00:00Z,26.5545,-82.1715,1.49,7.74,1111122 
SCCF RECON,ioos:station:SCCF:51:1,2011-01-07T18:00:00Z,26.5545,-82.1715,1.607,7.78,1111122 
SCCF RECON,ioos:station:SCCF:51:1,2011-01-07T19:00:00Z,26.5545,-82.1715,1.699,7.92,1111122 
SCCF RECON,ioos:station:SCCF:51:1,2011-01-07T20:00:00Z,26.5545,-82.1715,1.753,7.95,1111122 
SCCF RECON,ioos:station:SCCF:51:1,2011-01-07T21:00:00Z,26.5545,-82.1715,1.786,7.94,1111122 
SCCF RECON,ioos:station:SCCF:51:1,2011-01-07T22:00:00Z,26.5545,-82.1715,1.751,8.04,1111122 
SCCF RECON,ioos:station:SCCF:51:1,2011-01-07T23:00:00Z,26.5545,-82.1715,1.699,7.98,1111122 
SCCF RECON,ioos:station:SCCF:51:1,2011-01-08T00:00:00Z,26.5545,-82.1715,1.649,7.84,1111122 
SCCF RECON,ioos:station:SCCF:51:1,2011-01-08T01:00:00Z,26.5545,-82.1715,1.646,7.6,1111122 
SCCF RECON,ioos:station:SCCF:51:1,2011-01-08T02:00:00Z,26.5545,-82.1715,1.688,7.77,1111122 
SCCF RECON,ioos:station:SCCF:51:1,2011-01-08T03:00:00Z,26.5545,-82.1715,1.744,7.81,1111122 
SCCF RECON,ioos:station:SCCF:51:1,2011-01-08T04:00:00Z,26.5545,-82.1715,1.81,7.74,1111122 
SCCF RECON,ioos:station:SCCF:51:1,2011-01-08T05:00:00Z,26.5545,-82.1715,1.886,7.74,1111122 
SCCF RECON,ioos:station:SCCF:51:1,2011-01-08T06:00:00Z,26.5545,-82.1715,1.961,7.73,1111122 
SCCF RECON,ioos:station:SCCF:51:1,2011-01-08T07:00:00Z,26.5545,-82.1715,1.99,7.61,1111122 
SCCF RECON,ioos:station:SCCF:51:1,2011-01-08T08:00:00Z,26.5545,-82.1715,1.988,7.4,1111122 
SCCF RECON,ioos:station:SCCF:51:1,2011-01-08T09:00:00Z,26.5545,-82.1715,1.941,7.65,1111122 
SCCF RECON,ioos:station:SCCF:51:1,2011-01-08T10:00:00Z,26.5545,-82.1715,1.864,7.6,1111122 
SCCF RECON,ioos:station:SCCF:51:1,2011-01-08T11:00:00Z,26.5545,-82.1715,1.758,7.56,1111122 
SCCF RECON,ioos:station:SCCF:51:1,2011-01-08T12:00:00Z,26.5545,-82.1715,1.65,7.49,1111122 
SCCF RECON,ioos:station:SCCF:51:1,2011-01-08T13:00:00Z,26.5545,-82.1715,1.56,7.47,1111122 
SCCF RECON,ioos:station:SCCF:51:1,2011-01-08T14:00:00Z,26.5545,-82.1715,1.48,7.44,1111122 
SCCF RECON,ioos:station:SCCF:51:1,2011-01-08T15:00:00Z,26.5545,-82.1715,1.446,7.52,1111122 
SCCF RECON,ioos:station:SCCF:51:1,2011-01-08T16:00:00Z,26.5545,-82.1715,1.471,7.62,1111122 
SCCF RECON,ioos:station:SCCF:51:1,2011-01-08T17:00:00Z,26.5545,-82.1715,1.545,7.68,1111122 
SCCF RECON,ioos:station:SCCF:51:1,2011-01-08T18:00:00Z,26.5545,-82.1715,1.654,7.8,1111122 
SCCF RECON,ioos:station:SCCF:51:1,2011-01-08T19:00:00Z,26.5545,-82.1715,1.751,7.8,1111122 
SCCF RECON,ioos:station:SCCF:51:1,2011-01-08T20:00:00Z,26.5545,-82.1715,1.806,7.87,1111122 
SCCF RECON,ioos:station:SCCF:51:1,2011-01-08T21:00:00Z,26.5545,-82.1715,1.807,7.96,1111122 
SCCF RECON,ioos:station:SCCF:51:1,2011-01-08T22:00:00Z,26.5545,-82.1715,1.765,8.0,1111122 
SCCF RECON,ioos:station:SCCF:51:1,2011-01-08T23:00:00Z,26.5545,-82.1715,1.709,7.84,1111122 
SCCF RECON,ioos:station:SCCF:51:1,2011-01-09T00:00:00Z,26.5545,-82.1715,1.643,7.79,1111122 
SCCF RECON,ioos:station:SCCF:51:1,2011-01-09T01:00:00Z,26.5545,-82.1715,1.59,7.82,1111122 
SCCF RECON,ioos:station:SCCF:51:1,2011-01-09T02:00:00Z,26.5545,-82.1715,1.568,7.84,1111122 
SCCF RECON,ioos:station:SCCF:51:1,2011-01-09T03:00:00Z,26.5545,-82.1715,1.58,7.83,1111122 
SCCF RECON,ioos:station:SCCF:51:1,2011-01-09T04:00:00Z,26.5545,-82.1715,1.624,7.75,1111122 
SCCF RECON,ioos:station:SCCF:51:1,2011-01-09T05:00:00Z,26.5545,-82.1715,1.69,7.74,1111122 
SCCF RECON,ioos:station:SCCF:51:1,2011-01-09T06:00:00Z,26.5545,-82.1715,1.774,7.65,1111122 
SCCF RECON,ioos:station:SCCF:51:1,2011-01-09T07:00:00Z,26.5545,-82.1715,1.848,7.67,1111122 
SCCF RECON,ioos:station:SCCF:51:1,2011-01-09T08:00:00Z,26.5545,-82.1715,1.89,7.6,1111122 
SCCF RECON,ioos:station:SCCF:51:1,2011-01-09T09:00:00Z,26.5545,-82.1715,1.885,7.56,1111122 
SCCF RECON,ioos:station:SCCF:51:1,2011-01-09T10:00:00Z,26.5545,-82.1715,1.834,7.5,1111122 
SCCF RECON,ioos:station:SCCF:51:1,2011-01-09T11:00:00Z,26.5545,-82.1715,1.745,7.53,1111122 
SCCF RECON,ioos:station:SCCF:51:1,2011-01-09T12:00:00Z,26.5545,-82.1715,1.648,7.52,1111122 
SCCF RECON,ioos:station:SCCF:51:1,2011-01-09T13:00:00Z,26.5545,-82.1715,1.556,7.65,1111122 
SCCF RECON,ioos:station:SCCF:51:1,2011-01-09T14:00:00Z,26.5545,-82.1715,1.486,7.65,1111122 
SCCF RECON,ioos:station:SCCF:51:1,2011-01-09T15:00:00Z,26.5545,-82.1715,1.422,7.7,1111122 
SCCF RECON,ioos:station:SCCF:51:1,2011-01-09T16:00:00Z,26.5545,-82.1715,1.438,7.81,1111122 
SCCF RECON,ioos:station:SCCF:51:1,2011-01-09T17:00:00Z,26.5545,-82.1715,1.507,7.89,1111122 
SCCF RECON,ioos:station:SCCF:51:1,2011-01-09T18:00:00Z,26.5545,-82.1715,1.618,7.87,1111122 
SCCF RECON,ioos:station:SCCF:51:1,2011-01-09T19:00:00Z,26.5545,-82.1715,1.745,7.77,1111122 
SCCF RECON,ioos:station:SCCF:51:1,2011-01-09T20:00:00Z,26.5545,-82.1715,1.828,7.92,1111122 
SCCF RECON,ioos:station:SCCF:51:1,2011-01-09T21:00:00Z,26.5545,-82.1715,1.863,7.85,1111122 
SCCF RECON,ioos:station:SCCF:51:1,2011-01-09T22:00:00Z,26.5545,-82.1715,1.854,7.94,1111122 
SCCF RECON,ioos:station:SCCF:51:1,2011-01-09T23:00:00Z,26.5545,-82.1715,1.809,7.87,1111122 
SCCF RECON,ioos:station:SCCF:51:1,2011-01-10T00:00:00Z,26.5545,-82.1715,1.748,7.73,1111122 
SCCF RECON,ioos:station:SCCF:51:1,2011-01-10T01:00:00Z,26.5545,-82.1715,1.69,7.87,1111122 
SCCF RECON,ioos:station:SCCF:51:1,2011-01-10T02:00:00Z,26.5545,-82.1715,1.637,7.94,1111122 
SCCF RECON,ioos:station:SCCF:51:1,2011-01-10T03:00:00Z,26.5545,-82.1715,1.614,7.85,1111122 
SCCF RECON,ioos:station:SCCF:51:1,2011-01-10T04:00:00Z,26.5545,-82.1715,1.639,7.91,1111122 
SCCF RECON,ioos:station:SCCF:51:1,2011-01-10T05:00:00Z,26.5545,-82.1715,1.675,7.87,1111122 
SCCF RECON,ioos:station:SCCF:51:1,2011-01-10T06:00:00Z,26.5545,-82.1715,1.713,7.72,1111122 
SCCF RECON,ioos:station:SCCF:51:1,2011-01-10T07:00:00Z,26.5545,-82.1715,1.783,7.6,1111122 
SCCF RECON,ioos:station:SCCF:51:1,2011-01-10T08:00:00Z,26.5545,-82.1715,1.837,7.46,1111122 
SCCF RECON,ioos:station:SCCF:51:1,2011-01-10T09:00:00Z,26.5545,-82.1715,1.865,7.47,1111122 
SCCF RECON,ioos:station:SCCF:51:1,2011-01-10T10:00:00Z,26.5545,-82.1715,1.847,7.45,1111122 
SCCF RECON,ioos:station:SCCF:51:1,2011-01-10T11:00:00Z,26.5545,-82.1715,1.811,7.52,1111122 
SCCF RECON,ioos:station:SCCF:51:1,2011-01-10T12:00:00Z,26.5545,-82.1715,1.764,7.49,1111122 
SCCF RECON,ioos:station:SCCF:51:1,2011-01-10T13:00:00Z,26.5545,-82.1715,1.708,7.44,1111122 
SCCF RECON,ioos:station:SCCF:51:1,2011-01-10T14:00:00Z,26.5545,-82.1715,1.645,7.36,1111122 
SCCF RECON,ioos:station:SCCF:51:1,2011-01-10T15:00:00Z,26.5545,-82.1715,1.59,7.59,1111122 
SCCF RECON,ioos:station:SCCF:51:1,2011-01-10T16:00:00Z,26.5545,-82.1715,1.592,7.55,1111122 
SCCF RECON,ioos:station:SCCF:51:1,2011-01-10T18:00:00Z,26.5545,-82.1715,1.677,7.61,1111122 
SCCF RECON,ioos:station:SCCF:51:1,2011-01-10T19:00:00Z,26.5545,-82.1715,1.766,7.71,1111122 
SCCF RECON,ioos:station:SCCF:51:1,2011-01-10T20:00:00Z,26.5545,-82.1715,1.861,7.88,1111122 
SCCF RECON,ioos:station:SCCF:51:1,2011-01-10T21:00:00Z,26.5545,-82.1715,1.913,7.82,1111122 
SCCF RECON,ioos:station:SCCF:51:1,2011-01-10T22:00:00Z,26.5545,-82.1715,1.931,7.83,1111122 
SCCF RECON,ioos:station:SCCF:51:1,2011-01-10T23:00:00Z,26.5545,-82.1715,1.898,7.86,1111122 
SCCF RECON,ioos:station:SCCF:51:1,2011-01-11T00:00:00Z,26.5545,-82.1715,1.836,7.74,1111122 
SCCF RECON,ioos:station:SCCF:51:1,2011-01-11T01:00:00Z,26.5545,-82.1715,1.767,7.8,1111122 
SCCF RECON,ioos:station:SCCF:51:1,2011-01-11T02:00:00Z,26.5545,-82.1715,1.698,7.79,1111122 
SCCF RECON,ioos:station:SCCF:51:1,2011-01-11T03:00:00Z,26.5545,-82.1715,1.651,7.81,1111122 
SCCF RECON,ioos:station:SCCF:51:1,2011-01-11T04:00:00Z,26.5545,-82.1715,1.607,7.74,1111122 
SCCF RECON,ioos:station:SCCF:51:1,2011-01-11T05:00:00Z,26.5545,-82.1715,1.588,7.67,1111122 
SCCF RECON,ioos:station:SCCF:51:1,2011-01-11T06:00:00Z,26.5545,-82.1715,1.6,7.58,1111122 
SCCF RECON,ioos:station:SCCF:51:1,2011-01-11T07:00:00Z,26.5545,-82.1715,1.651,7.5,1111122 
SCCF RECON,ioos:station:SCCF:51:1,2011-01-11T08:00:00Z,26.5545,-82.1715,1.709,7.47,1111122 
SCCF RECON,ioos:station:SCCF:51:1,2011-01-11T09:00:00Z,26.5545,-82.1715,1.763,7.41,1111122 
SCCF RECON,ioos:station:SCCF:51:1,2011-01-11T10:00:00Z,26.5545,-82.1715,1.79,7.35,1111122 
SCCF RECON,ioos:station:SCCF:51:1,2011-01-11T11:00:00Z,26.5545,-82.1715,1.776,7.31,1111122 
SCCF RECON,ioos:station:SCCF:51:1,2011-01-11T12:00:00Z,26.5545,-82.1715,1.749,7.19,1111122 
SCCF RECON,ioos:station:SCCF:51:1,2011-01-11T13:00:00Z,26.5545,-82.1715,1.71,7.11,1111122 
SCCF RECON,ioos:station:SCCF:51:1,2011-01-11T14:00:00Z,26.5545,-82.1715,1.678,7.25,1111122 
SCCF RECON,ioos:station:SCCF:51:1,2011-01-11T15:00:00Z,26.5545,-82.1715,1.65,7.18,1111122 
SCCF RECON,ioos:station:SCCF:51:1,2011-01-11T16:00:00Z,26.5545,-82.1715,1.655,7.35,1111122 
SCCF RECON,ioos:station:SCCF:51:1,2011-01-11T17:00:00Z,26.5545,-82.1715,1.691,7.63,1111122 
SCCF RECON,ioos:station:SCCF:51:1,2011-01-11T18:00:00Z,26.5545,-82.1715,1.733,7.56,1111122 
SCCF RECON,ioos:station:SCCF:51:1,2011-01-11T19:00:00Z,26.5545,-82.1715,1.767,7.7,1111122 
SCCF RECON,ioos:station:SCCF:51:1,2011-01-11T20:00:00Z,26.5545,-82.1715,1.831,7.71,1111122 